{"data":{"norad_id":69077,"epoch":"2026-09-20T04:17:01.815072Z","epoch_age_seconds":51057,"freshness":"FRESH","line1":"1 69077U 26104E   26263.17849323  .00000070  00000+0  89264-4 0  9997","line2":"2 69077  88.9898 331.7714 0002081 106.9892 253.1487 13.51025875 17985","mean_motion":13.51025875,"eccentricity":0.0002081,"inclination_deg":88.9898,"raan_deg":331.7714,"arg_perigee_deg":106.9892,"mean_anomaly_deg":253.1487,"bstar":8.9264e-5,"rev_number":1798,"period_min":106.58567142543,"perigee_km":1066.9368623273,"apogee_km":1070.0361470299,"semimajor_km":7446.6235046786,"source":"CELESTRAK","updated_at":"2026-09-20T09:00:24.642687Z"}}